Terminal Aerodrome Forecast
Issued by NWS Cheyenne, WY

Home | Current Version | Previous Version | Text Only | Print | Product List | Glossary On
Versions: 1 2 3 4 5 6 7 8 9 10 11 12 13 14 15 16 17 18 19 20 21 22 23 24 25 26 27 28 29 30 31
942
FTUS45 KCYS 110542 CCA
TAFCYS
TAF COR
KCYS 110542Z 1106/1206 29008KT P6SM FEW250
     FM110900 28012KT P6SM FEW200
     FM111500 29015G25KT P6SM SCT150
     FM120100 31010KT P6SM OVC080=

USA.gov is the U.S. government's official web portal to all federal, state and local government web resources and services.